sat.trackr.live / text

‹ back to catalog

STARLINK-6147

NORAD 57120 · 2023-090V

PAYLOAD ACTIVE UNKNOWN

§ Identity

Operator
Country
US
Launch date
2023-06-23
Launch site
AFETR
Launch vehicle
Mass (kg)
RCS (m²)

Purposes: comms

External: N2YO · Heavens-Above · Gunter

§ Orbital elements

Epoch: 2026-09-20T22:26:27.744576Z

Period
94.27 min
Inclination
43.0012°
Eccentricity
0.0001311
Mean motion
15.27577527 rev/d
Perigee alt
482.2 km
Apogee alt
484.0 km
Semi-major
6,861.2 km
B*
2.9338e-5
RAAN
258.8225°
Arg perigee
267.2382°
Mean anomaly
92.8320°
Rev number
18,019

§ Raw data

STARLINK-61471 57120U 23090V   26263.93504334  .00000545  00000+0  29338-4 0  99912 57120  43.0012 258.8225 0001311 267.2382  92.8320 15.27577527180196

JSON: /api/v1/satellites/57120 · /tle

For live sub-satellite position, see the globe view (requires WebGL).

§ Visibility from observer

Set your observer location to see the next 7 days of passes ≥ 10°. The values pass through the URL so the page stays shareable.

No JS? Fill the form by hand. The geolocation button needs JavaScript.